Regional Weather Roundup
Issued by NWS

Home | Current Version | Previous Version | Graphics & Text | Print | Product List | Glossary On
Versions: 1 2 3 4 5 6 7 8 9 10 11 12 13 14 15 16 17 18 19 20 21 22 23 24 25 26 27 28 29 30 31 32 33 34 35 36 37 38 39 40 41 42 43 44 45 46 47 48 49 50
000
ASUS43 KLMK 221410
RWRKY
KENTUCKY REGIONAL WEATHER ROUNDUP
NATIONAL WEATHER SERVICE LOUISVILLE KY
1000 AM EDT FRI SEP 22 2017

NOTE "FAIR" INDICATES FEW OR NO CLOUDS BELOW 12,000 FEET
WITH NO SIGNIFICANT WEATHER AND/OR OBSTRUCTIONS TO VISIBILITY.

KYZ001>023-026-027-061>063-070>075-221500-
WESTERN AND SOUTH CENTRAL KENTUCKY

CITY           SKY/WX    TMP DP  RH WIND       PRES   REMARKS
PADUCAH        SUNNY     78  71  79 CALM      30.07R
HENDERSON      SUNNY     78  72  81 CALM      30.09S
OWENSBORO      SUNNY     80  70  71 VRB5      30.09S
HOPKINSVILLE   NOT AVBL
BOWLING GREEN  SUNNY     76  71  85 E3        30.10S
GLASGOW        SUNNY     75  69  81 NE3       30.11S
$$

KYZ024-025-028>034-038-045-046-053-221500-
NORTH CENTRAL KENTUCKY

CITY           SKY/WX    TMP DP  RH WIND       PRES   REMARKS
LOUISVILLE/SDF MOSUNNY   78  70  76 S3        30.11R
LOUISVILLE/LOU SUNNY     78  72  81 VRB3      30.12R
FORT KNOX      MOSUNNY   74  74 100 E5        30.11R
$$

KYZ035>037-039>044-047>052-055>060-089>105-221500-
NORTHEAST KENTUCKY

CITY           SKY/WX    TMP DP  RH WIND       PRES   REMARKS
LEXINGTON      SUNNY     78  69  73 NE3       30.14R
COVINGTON      MOSUNNY   80  70  71 CALM      30.13S
FRANKFORT      SUNNY     76  67  73 CALM      30.12S
$$

KYZ054-064>069-076>088-106>120-221500-
SOUTHEAST KENTUCKY

CITY           SKY/WX    TMP DP  RH WIND       PRES   REMARKS
JACKSON        SUNNY     74  68  81 CALM      30.15R
LONDON         SUNNY     73  66  78 NE3       30.14R
SOMERSET       SUNNY     72  68  88 CALM      30.14S
MIDDLESBORO    CLOUDY    64  64 100 CALM      30.16R FOG
MONTICELLO     SUNNY     70  69  97 VRB6      30.15R
$$





USA.gov is the U.S. government's official web portal to all federal, state and local government web resources and services.